Hlavní strana
METAR-TAF:

METAR-TAF

Letiště :

Winchester, Tennessee, Spojené státy americké

zeměpisná šířka: 35-10-39N, zeměpisná délka: 086-03-58W, výška: 298 m

Aktuální stav počasí

Zpráva byla vytvořena před 29 minutami, v 17:15 UTC
Severní vítr 10 kt
Teplota 9°C
Vlhkost vzduchu 40%
Tlak 1024 hPa
Viditelnost: 16.1 km
Jasno

METAR: KBGF 151715Z AUTO 36010KT 10SM CLR 09/M04 A3023 RMK A01

Čas: 11:44 (17:44 UTC)


TAF: chybějící

Stav a předpovědi počasí z více než 4 000 letišť (zprávy METAR a TAF).

Červené a žluté tečky na mapě představují dostupné meteorologické stanice.

Když kurzor umístíte na tečku, zobrazí se název stanice.

Pak kliknutím zobrazíte stav a předpověď počasí.

Chcete-li změnit mapu, kliknutím na zelené tlačítko se znaménkem +mapu přiblížíte, kliknutím na zelené tlačítko se znaménkem – mapu oddálíte a kliknutím na zelené šipky přejdete na sousední mapy.


METAR-TAF: